CFZWF KPIH-KSLC

Flight info

Callsign CFZWF
Flight time 0h 37m
Altitude 17000
Route PIH V21 TCH
Aircraft TBM8/L-SDFGRWY/S

Departure

Time 2026-05-07 09:24
Airport Pocatello Regional Airport (KPIH)

Arrival

Time 2026-05-07 10:01
Airport Salt Lake City International Airport (KSLC)
Time Latitude Longitude Altitude Speed Heading
2026-05-07 09:04 42.90960 -112.58621 4459 ft 0 kts 157°
2026-05-07 09:20 42.90958 -112.58621 4450 ft 2 kts 190°
2026-05-07 09:21 42.90970 -112.58641 4450 ft 6 kts 352°
2026-05-07 09:21 42.91012 -112.58648 4450 ft 5 kts 354°
2026-05-07 09:21 42.91037 -112.58654 4450 ft 2 kts 336°
2026-05-07 09:21 42.91046 -112.58661 4450 ft 6 kts 323°
2026-05-07 09:22 42.91091 -112.58724 4451 ft 11 kts 314°
2026-05-07 09:22 42.91109 -112.58805 4450 ft 8 kts 223°
2026-05-07 09:22 42.91093 -112.58825 4450 ft 0 kts 224°
2026-05-07 09:23 42.91038 -112.58902 4449 ft 33 kts 226°
2026-05-07 09:23 42.90755 -112.59286 4456 ft 79 kts 224°
2026-05-07 09:23 42.90319 -112.59897 4631 ft 96 kts 226°
2026-05-07 09:24 42.89878 -112.60523 5159 ft 84 kts 218°
2026-05-07 09:24 42.89406 -112.61103 5387 ft 98 kts 219°
2026-05-07 09:24 42.88897 -112.61723 5792 ft 95 kts 219°
2026-05-07 09:24 42.88325 -112.62185 6205 ft 97 kts 211°
2026-05-07 09:25 42.87691 -112.62519 6567 ft 101 kts 198°
2026-05-07 09:25 42.86959 -112.62415 6898 ft 108 kts 187°
2026-05-07 09:25 42.86220 -112.62373 7208 ft 110 kts 186°
2026-05-07 09:25 42.85444 -112.62313 7507 ft 113 kts 186°
2026-05-07 09:26 42.84658 -112.62261 7839 ft 113 kts 187°
2026-05-07 09:26 42.83859 -112.62209 8218 ft 117 kts 187°
2026-05-07 09:26 42.83037 -112.62144 8584 ft 119 kts 187°
2026-05-07 09:26 42.82214 -112.62079 8894 ft 121 kts 187°
2026-05-07 09:27 42.81362 -112.62017 9227 ft 123 kts 188°
2026-05-07 09:27 42.80507 -112.61982 9545 ft 120 kts 202°
2026-05-07 09:27 42.78908 -112.62459 10167 ft 116 kts 213°
2026-05-07 09:28 42.78069 -112.62545 10486 ft 133 kts 175°
2026-05-07 09:28 42.77172 -112.62229 10748 ft 135 kts 179°
2026-05-07 09:28 42.76248 -112.61962 11049 ft 136 kts 177°
2026-05-07 09:28 42.75319 -112.61671 11338 ft 138 kts 177°
2026-05-07 09:29 42.74378 -112.61384 11602 ft 139 kts 177°
2026-05-07 09:29 42.73431 -112.61093 11887 ft 140 kts 177°
2026-05-07 09:29 42.72487 -112.60808 12160 ft 141 kts 177°
2026-05-07 09:29 42.71507 -112.60517 12385 ft 147 kts 177°
2026-05-07 09:30 42.70466 -112.60212 12568 ft 159 kts 176°
2026-05-07 09:30 42.69337 -112.59882 12740 ft 173 kts 175°
2026-05-07 09:30 42.68162 -112.59521 13077 ft 172 kts 174°
2026-05-07 09:30 42.66996 -112.59161 13410 ft 175 kts 175°
2026-05-07 09:31 42.65804 -112.58798 13766 ft 176 kts 174°
2026-05-07 09:31 42.64598 -112.58433 14096 ft 178 kts 175°
2026-05-07 09:31 42.63416 -112.58082 14405 ft 179 kts 175°
2026-05-07 09:31 42.62197 -112.57717 14717 ft 180 kts 175°
2026-05-07 09:32 42.60972 -112.57345 15041 ft 181 kts 175°
2026-05-07 09:32 42.59738 -112.56974 15356 ft 182 kts 175°
2026-05-07 09:32 42.58498 -112.56601 15674 ft 183 kts 175°
2026-05-07 09:32 42.57254 -112.56228 15987 ft 184 kts 175°
2026-05-07 09:33 42.56018 -112.55857 16284 ft 184 kts 175°
2026-05-07 09:33 42.54761 -112.55480 16590 ft 185 kts 175°
2026-05-07 09:33 42.53494 -112.55101 16890 ft 186 kts 175°
2026-05-07 09:33 42.52172 -112.54714 16945 ft 203 kts 175°
2026-05-07 09:34 42.50729 -112.54296 16953 ft 220 kts 174°
2026-05-07 09:34 42.49178 -112.53832 16962 ft 235 kts 174°
2026-05-07 09:34 42.47541 -112.53334 16964 ft 247 kts 173°
2026-05-07 09:34 42.45840 -112.52817 16966 ft 260 kts 173°
2026-05-07 09:35 42.44028 -112.52267 16967 ft 273 kts 173°
2026-05-07 09:35 42.42131 -112.51705 16972 ft 284 kts 173°
2026-05-07 09:35 42.40152 -112.51120 16970 ft 294 kts 173°
2026-05-07 09:35 42.38156 -112.50521 16972 ft 300 kts 172°
2026-05-07 09:36 42.36088 -112.49901 16973 ft 305 kts 172°
2026-05-07 09:36 42.33991 -112.49278 16974 ft 309 kts 173°
2026-05-07 09:36 42.31879 -112.48652 16975 ft 313 kts 173°
2026-05-07 09:36 42.29766 -112.48025 16972 ft 315 kts 172°
2026-05-07 09:37 42.27615 -112.47383 16972 ft 317 kts 172°
2026-05-07 09:37 42.25456 -112.46741 16971 ft 318 kts 172°
2026-05-07 09:37 42.23387 -112.46128 16976 ft 318 kts 172°
2026-05-07 09:37 42.21221 -112.45484 16978 ft 317 kts 172°
2026-05-07 09:38 42.19064 -112.44787 16975 ft 320 kts 168°
2026-05-07 09:38 42.16913 -112.43972 16976 ft 320 kts 169°
2026-05-07 09:38 42.14784 -112.43201 16979 ft 320 kts 169°
2026-05-07 09:38 42.12630 -112.42424 16980 ft 319 kts 169°
2026-05-07 09:39 42.10503 -112.41642 16986 ft 320 kts 169°
2026-05-07 09:39 42.08346 -112.40849 16979 ft 321 kts 168°
2026-05-07 09:39 42.06182 -112.40054 16985 ft 322 kts 169°
2026-05-07 09:39 42.04018 -112.39265 16987 ft 321 kts 169°
2026-05-07 09:40 42.01858 -112.38479 16992 ft 321 kts 169°
2026-05-07 09:40 41.99695 -112.37690 16996 ft 322 kts 168°
2026-05-07 09:40 41.97555 -112.36904 16989 ft 322 kts 168°
2026-05-07 09:41 41.93317 -112.35363 16987 ft 322 kts 169°
2026-05-07 09:41 41.91153 -112.34575 16991 ft 322 kts 169°
2026-05-07 09:41 41.88986 -112.33785 16986 ft 322 kts 169°
2026-05-07 09:41 41.86822 -112.32998 16988 ft 322 kts 168°
2026-05-07 09:42 41.84680 -112.32221 16989 ft 322 kts 168°
2026-05-07 09:42 41.82511 -112.31432 16999 ft 322 kts 168°
2026-05-07 09:42 41.80335 -112.30643 16999 ft 322 kts 168°
2026-05-07 09:42 41.78177 -112.29862 17007 ft 321 kts 168°
2026-05-07 09:43 41.76048 -112.29090 17018 ft 321 kts 168°
2026-05-07 09:43 41.73880 -112.28302 17023 ft 321 kts 168°
2026-05-07 09:43 41.71783 -112.27543 17028 ft 320 kts 168°
2026-05-07 09:43 41.69631 -112.26765 17032 ft 321 kts 168°
2026-05-07 09:44 41.67458 -112.25977 17036 ft 322 kts 168°
2026-05-07 09:44 41.65316 -112.25205 17043 ft 322 kts 168°
2026-05-07 09:44 41.63141 -112.24422 17050 ft 323 kts 168°
2026-05-07 09:44 41.60964 -112.23634 17052 ft 323 kts 168°
2026-05-07 09:45 41.58813 -112.22858 17052 ft 323 kts 168°
2026-05-07 09:45 41.56642 -112.22076 17058 ft 322 kts 168°
2026-05-07 09:45 41.54469 -112.21297 17061 ft 323 kts 168°
2026-05-07 09:45 41.52296 -112.20516 17060 ft 321 kts 168°
2026-05-07 09:46 41.50172 -112.19765 17058 ft 310 kts 168°
2026-05-07 09:46 41.48138 -112.19032 17056 ft 303 kts 168°
2026-05-07 09:46 41.46117 -112.18292 17050 ft 298 kts 168°
2026-05-07 09:46 41.44125 -112.17575 16965 ft 296 kts 168°
2026-05-07 09:47 41.42141 -112.16878 16753 ft 293 kts 169°
2026-05-07 09:47 41.40181 -112.16178 16548 ft 291 kts 168°
2026-05-07 09:47 41.38233 -112.15486 16339 ft 288 kts 168°
2026-05-07 09:47 41.36299 -112.14797 16133 ft 287 kts 168°
2026-05-07 09:48 41.34378 -112.14104 15951 ft 285 kts 168°
2026-05-07 09:48 41.32466 -112.13417 15761 ft 283 kts 168°
2026-05-07 09:48 41.30565 -112.12737 15570 ft 281 kts 168°
2026-05-07 09:48 41.28728 -112.12090 15347 ft 271 kts 169°
2026-05-07 09:49 41.26935 -112.11452 15108 ft 262 kts 168°
2026-05-07 09:49 41.25183 -112.10814 14866 ft 256 kts 168°
2026-05-07 09:49 41.23528 -112.10192 14496 ft 258 kts 163°
2026-05-07 09:49 41.21999 -112.09046 14107 ft 261 kts 143°
2026-05-07 09:50 41.20690 -112.07281 13664 ft 260 kts 131°
2026-05-07 09:50 41.19501 -112.05477 13227 ft 259 kts 132°
2026-05-07 09:50 41.18314 -112.03726 12797 ft 257 kts 133°
2026-05-07 09:50 41.17121 -112.01962 12363 ft 255 kts 132°
2026-05-07 09:51 41.15954 -112.00242 11778 ft 243 kts 133°
2026-05-07 09:51 41.14849 -111.98611 11187 ft 232 kts 133°
2026-05-07 09:51 41.13679 -111.97211 10629 ft 221 kts 152°
2026-05-07 09:51 41.12794 -111.96639 10424 ft 208 kts 162°
2026-05-07 09:52 41.11442 -111.96234 10113 ft 192 kts 181°
2026-05-07 09:52 41.10134 -111.96227 9772 ft 184 kts 185°
2026-05-07 09:52 41.08883 -111.96217 9487 ft 177 kts 184°
2026-05-07 09:52 41.07670 -111.96205 9275 ft 174 kts 184°
2026-05-07 09:53 41.06433 -111.96200 9020 ft 179 kts 184°
2026-05-07 09:53 41.05178 -111.96208 8797 ft 180 kts 184°
2026-05-07 09:53 41.03941 -111.96211 8600 ft 179 kts 184°
2026-05-07 09:53 41.02705 -111.96208 8446 ft 175 kts 184°
2026-05-07 09:54 41.01491 -111.96206 8292 ft 173 kts 184°
2026-05-07 09:54 41.00302 -111.96209 8139 ft 171 kts 184°
2026-05-07 09:54 40.99118 -111.96205 7989 ft 169 kts 184°
2026-05-07 09:54 40.97938 -111.96207 7831 ft 168 kts 184°
2026-05-07 09:55 40.96780 -111.96207 7686 ft 167 kts 183°
2026-05-07 09:55 40.95616 -111.96206 7518 ft 166 kts 183°
2026-05-07 09:55 40.94461 -111.96207 7364 ft 165 kts 183°
2026-05-07 09:55 40.93344 -111.96208 7203 ft 164 kts 182°
2026-05-07 09:56 40.92204 -111.96202 7024 ft 163 kts 182°
2026-05-07 09:56 40.91075 -111.96194 6770 ft 165 kts 181°
2026-05-07 09:56 40.89906 -111.96215 6430 ft 169 kts 182°
2026-05-07 09:56 40.88716 -111.96209 6063 ft 171 kts 179°
2026-05-07 09:57 40.87556 -111.96208 5814 ft 165 kts 179°
2026-05-07 09:57 40.86422 -111.96211 5592 ft 158 kts 178°
2026-05-07 09:57 40.85419 -111.96215 5390 ft 133 kts 176°
2026-05-07 09:57 40.84627 -111.96208 5228 ft 117 kts 176°
2026-05-07 09:58 40.83864 -111.96209 5077 ft 100 kts 176°
2026-05-07 09:58 40.83399 -111.96211 4994 ft 81 kts 175°
2026-05-07 09:58 40.82826 -111.96183 4879 ft 86 kts 171°
2026-05-07 09:58 40.82228 -111.96187 4755 ft 83 kts 177°
2026-05-07 09:59 40.81674 -111.96206 4637 ft 78 kts 174°
2026-05-07 09:59 40.81147 -111.96198 4533 ft 78 kts 170°
2026-05-07 09:59 40.80572 -111.96197 4414 ft 84 kts 176°
2026-05-07 09:59 40.80045 -111.96203 4310 ft 83 kts 175°
2026-05-07 10:00 40.79617 -111.96209 4242 ft 76 kts 174°
2026-05-07 10:00 40.79315 -111.96207 4234 ft 67 kts 176°
2026-05-07 10:00 40.79009 -111.96203 4232 ft 61 kts 181°
2026-05-07 10:00 40.78583 -111.96213 4231 ft 56 kts 173°
2026-05-07 10:01 40.78263 -111.96203 4227 ft 21 kts 174°
2026-05-07 10:01 40.78237 -111.96065 4224 ft 6 kts 84°
2026-05-07 10:01 40.78203 -111.95996 4223 ft 10 kts 180°
2026-05-07 10:01 40.78144 -111.96002 4225 ft 6 kts 181°
2026-05-07 10:02 40.78104 -111.96002 4226 ft 10 kts 179°
2026-05-07 10:02 40.77983 -111.95999 4227 ft 22 kts 179°
2026-05-07 10:02 40.77859 -111.96023 4229 ft 16 kts 234°
2026-05-07 10:02 40.77765 -111.96061 4232 ft 8 kts 156°
2026-05-07 10:03 40.77759 -111.95978 4232 ft 12 kts 90°
2026-05-07 10:03 40.77782 -111.95944 4230 ft 3 kts
2026-05-07 10:03 40.77782 -111.95943 4230 ft 0 kts